Regional Weather Roundup
Issued by NWS

Home | Current Version | Previous Version | Graphics & Text | Print | Product List | Glossary On
Versions: 1 2 3 4 5 6 7 8 9 10 11 12 13 14 15 16 17 18 19 20 21 22 23 24 25 26 27 28 29 30 31 32 33 34 35 36 37 38 39 40 41 42 43 44 45 46 47 48 49 50
000
ASUS43 KLOT 280106
RWRIL

ILLINOIS REGIONAL WEATHER ROUNDUP
NATIONAL WEATHER SERVICE CHICAGO/ROMEOVILLE IL
700 PM CST SAT DEC 27 2014

NOTE: "FAIR" INDICATES FEW OR NO CLOUDS BELOW 12,000 FEET WITH NO
SIGNIFICANT WEATHER AND/OR OBSTRUCTIONS TO VISIBILITY.

* THESE STATIONS ARE NOT UNDER NWS QUALITY CONTROL. THEY ALSO MAY NOT
  REPORT WEATHER SUCH AS PRECIPITATION OR FOG.

ILZ001-002-007-009-015-016-024-280200-
NORTHWEST ILLINOIS

CITY           SKY/WX    TMP DP  RH WIND       PRES   REMARKS
MOLINE         CLOUDY    30  22  72 NW15      30.16S WCI  19
STERLING*      MOCLDY    32  25  74 NW14      30.13S WCI  22
SAVANNA*       CLOUDY    32  25  75 W12G17    30.15S WCI  23
$$

ILZ003-004-008-010-011-017-018-280200-
NORTH CENTRAL ILLINOIS

CITY           SKY/WX    TMP DP  RH WIND       PRES   REMARKS
ROCKFORD       MOCLDY    32  25  75 NW13      30.12S WCI  22
FREEPORT*      CLOUDY    31  25  78 NW12G18   30.13F WCI  21
ROCHELLE*      CLOUDY    31  27  84 W14       30.12R WCI  20
DE KALB*       CLOUDY    30  26  86 W14G21    30.09S WCI  20
PERU*          CLOUDY    33  28  81 W9        30.14S WCI  25
$$

ILZ005-006-012>014-019>023-280200-
NORTHEAST ILLINOIS

CITY           SKY/WX    TMP DP  RH WIND       PRES   REMARKS
CHICAGO-OHARE  CLOUDY    34  26  72 NW17G23   30.08R WCI  23
CHICAGO-MIDWAY CLOUDY    36  26  67 W15       30.09R WCI  27
AURORA         CLOUDY    33  27  78 W14       30.10R WCI  23
LANSING*       CLOUDY    34  28  77 W13G21    30.10R WCI  25
JOLIET*        CLOUDY    32  27  80 W9        30.12R WCI  24
WAUKEGAN       CLOUDY    34  25  69 W7G21     30.05R WCI  28
DUPAGE AIRPORT CLOUDY    34  26  72 W10       30.08R WCI  26
KANKAKEE*      CLOUDY    34  30  85 W15       30.13R WCI  24
WHEELING       CLOUDY    34  26  72 W14G20    30.09R WCI  25
MORRIS*        CLOUDY    32  29  87 W12G18    30.13R WCI  23
ROMEOVILLE*    CLOUDY    33  27  80 W12       30.10S WCI  24
NORTHERLY ISL    N/A     35  26  70 W16         N/A  WCI  25
$$

LMZ740>746-280200-
SOUTHERN LAKE MICHIGAN

STATION/POSITION SKY/WX   TEMP    WIND        PRES    VSBY  WAVE
                          AIR SEA DIR/SP/G                  HT/PER
                          (F)     (DEG/KT/KT) (MB)    (MI)  (FT/S)
WAUKEGAN HARBOR            34     300/ 13/ 22   N/A
HARRISON CRIB              34     270/ 19/ 23   N/A
BURNHAM HARBOR             35     290/ 11/ 18   N/A
CALUMET HARBOR             35     250/  8/ 14 1017.4F
MICHIGAN CITY              35     250/ 24/ 27   N/A
$$

ILZ025>027-034>036-040-047-049-050-058-095>099-280200-
WEST-CENTRAL ILLINOIS

CITY           SKY/WX    TMP DP  RH WIND       PRES   REMARKS
QUINCY         CLOUDY    33  25  72 NW9       30.20R WCI  25
GALESBURG*     CLOUDY    31  25  80 W13G21    30.17S WCI  21
MACOMB*        CLOUDY    32  27  80 NW16G22   30.19F WCI  21
JACKSONVILLE*  CLOUDY    36  30  80 NW12      30.20R WCI  27
PITTSFIELD*    CLOUDY    34  29  82 NW8       30.21R WCI  27
$$

ILZ028>032-037-038-041>044-048-051>054-059>061-280200-
CENTRAL ILLINOIS

CITY           SKY/WX    TMP DP  RH WIND       PRES   REMARKS
PONTIAC        CLOUDY    33  29  83 NW13G21   30.15R WCI  24
BLOOMINGTON    CLOUDY    33  29  86 NW12      30.15S WCI  24
DECATUR        CLOUDY    35  32  88 NW9       30.15F WCI  28
PEORIA         CLOUDY    34  25  69 NW12      30.16S WCI  25
LACON*         MOCLDY    32  26  77 W6        30.14F WCI  26
LINCOLN*       CLOUDY    35  30  83 NW7       30.18R WCI  29
SPRINGFIELD    CLOUDY    35  30  82 NW9       30.19R WCI  28
TAYLORVILLE    CLOUDY    34  32  93 W9        30.18R WCI  26
$$

ILZ033-039-045-046-055>057-062-063-280200-
EAST-CENTRAL ILLINOIS

CITY           SKY/WX    TMP DP  RH WIND       PRES   REMARKS
CHAMPAIGN      LGT SNOW  34  33  96 NW10      30.13S FOG     WCI  26
DANVILLE*      LGT RAIN  33  32  96 W7        30.10S WCI  27
RANTOUL*       CLOUDY    36  32  86 NW16G22   30.13S WCI  26
MATTOON        RAIN      35  34  96 NW10      30.13S FOG     WCI  27
PARIS*         RAIN      36  35  96 W13       30.14S WCI  28
$$

ILZ079-100>102-280200-
SOUTHWEST ILLINOIS

CITY           SKY/WX    TMP DP  RH WIND       PRES   REMARKS
BELLEVILLE     LGT RAIN  36  35  99 NW5       30.19F WCI  32
CAHOKIA*       LGT RAIN  36  35  96 W5        30.20R WCI  32
SPARTA*        LGT RAIN  37  36  95 N7        30.19F WCI  31
$$

ILZ064>066-069>071-074>076-080>082-084>086-088>090-092>094-280200-
SOUTH-CENTRAL ILLINOIS

CITY           SKY/WX    TMP DP  RH WIND       PRES   REMARKS
CARBONDALE     RAIN      39  38  96 NW8       30.20R FOG     WCI  33
CAIRO*         CLOUDY   N/A N/A N/A N10       30.15S HAZE
EFFINGHAM*     RAIN      37  34  87 W9        30.18R WCI  31
MARION         RAIN      41  39  93 NW7       30.19R
MT. VERNON     CLOUDY    37  34  87 CALM      30.19R
CENTRALIA*     RAIN      37  35  91 NW5       30.18R WCI  34
SALEM*         RAIN      39  37  91 NW6       30.19R WCI  35
METROPOLIS*    RAIN      44  44 100 N16G22    30.13R
$$

ILZ067-068-072-073-078-083-087-091-280200-
SOUTHEAST ILLINOIS

CITY           SKY/WX    TMP DP  RH WIND       PRES   REMARKS
LAWRENCEVILLE  LGT RAIN  41  40  96 NW15      30.15R FOG
FLORA*         RAIN      38  37  98 NW7       30.19R WCI  33
FAIRFIELD*     LGT RAIN  39  38  97 NW5       30.17S
HARRISBURG*    DRIZZLE   42  41  99 NW9       30.18R
ROBINSON*      LGT RAIN  40  38  95 NW8       30.16R
CARMI*         RAIN      44  43  99 NW15      30.15R
$$

ABBREVIATIONS USED IN REMARKS
   TC - TEMPERATURE IN CELSIUS
  WCI - WIND CHILL INDEX
   HX - HEAT INDEX
  VSB - VISIBILITY
$$




USA.gov is the U.S. government's official web portal to all federal, state and local government web resources and services.